Reflectivity
25 13 -10 -20 -20 -20 4 6 9 7 -7 -17 -20 -20 -20 -8 -18 0 2 -20 -20 -20 -20 -20 -20 -20 -20 -20 -20 -20 -20 -20 -20 -20 -20 -20 -20 -20 -20 -20 -20 -20 -20 -20
31 13 12 8 -3 -20 -5 9 10 -20 -20 -0 -18 -20 -20 -20 -19 -20 -17 -20 -20 -20 -20 -20 -20 -20 -20 -20 -20 -20 -20 -20 -20 -20 -20 -20 -20 -20 -20 -20 -20 -20 -20 -20
12 23 13 -5 -2 -14 -6 -10 2 -20 -20 -3 -16 -20 -20 -20 -20 -20 -3 11 -19 -20 -20 -20 -20 -20 -20 -20 -20 -20 -20 -20 -20 -20 -20 -20 -20 -20 -20 -20 -20 -20 -20 -20
12 20 -18 -11 5 -10 -14 -20 -20 -20 -20 -15 -20 -20 -20 -20 -20 -1 -20 -20 -20 -20 -20 -20 -20 -20 -20 -20 -20 -20 -20 -20 -20 -20 -20 -20 -20 -20 -20 -20 -20 -20 -20 -20
15 23 24 -3 0 -20 -20 -20 -20 -20 -19 -20 -20 -14 -20 -20 -20 -20 -20 -20 -20 -9 -20 -20 -20 -20 -20 -20 -20 -20 -20 -20 -20 -20 -20 -20 -20 -20 -20 -20 -20 -20 -20 -20
14 22 30 -13 15 -20 -20 -20 -20 -15 -2 3 -20 -14 -20 -20 -20 -20 -20 -20 -20 -16 -20 -20 -20 -20 -20 -20 -20 -20 -20 -20 -20 -20 -20 -20 -20 -20 -20 -20 -20 -20 -20 -20
22 34 15 -11 8 -20 -20 -20 9 0 2 -12 -20 -20 -20 -20 -20 -20 -20 -20 -20 -20 -20 -20 -20 -20 -20 -20 -20 -20 -20 -20 -20 -20 -20 -20 -20 -20 -20 -20 -20 -20 -20 -20
15 6 31 7 -5 -20 -3 -20 -20 -20 -1 -18 -20 -20 -20 -20 -20 -20 -20 -20 -20 -20 13 -20 -20 -20 -20 -20 -20 -20 -20 -20 -20 -20 -20 -20 -20 -20 -20 -20 -20 -20 -20 -20
-17 -10 13 -17 -20 -20 -20 6 -20 -20 -20 -20 -20 -20 -20 -20 -20 -20 -20 -20 -20 -20 -20 -20 -12 -18 -20 -17 -20 -20 -20 -20 -20 -20 -20 -20 -20 -20 -20 -20 -20 -20 -20 -20
-20 2 -14 2 -7 -17 -6 -20 -9 -19 -20 -20 -20 -20 -20 -20 -20 -20 -20 -20 -20 -20 -20 -20 -19 -18 -4 -20 -20 -20 -20 -20 -20 -20 -20 -20 -20 -20 -20 -20 -20 -20 -20 -20
-20 -15 23 -9 10 -2 -20 -20 -20 -20 -20 -20 -20 -20 -20 -20 -20 -20 -20 -20 -20 -20 -20 -20 -20 -20 3 -14 -20 -20 -20 -20 -20 -20 -20 -20 -20 -20 -20 -20 -20 -20 -20 -20
-20 -20 5 16 -20 -20 -20 -20 -20 -9 -19 -20 -20 -20 -20 -20 -20 -20 -20 -20 -20 -20 -20 -20 -20 -20 -20 -5 8 -20 -20 -20 -20 -20 -20 -20 -20 -20 -20 -20 -20 -20 -20 -20
-20 -20 1 -13 -20 -20 -20 -20 -20 -20 -20 -20 -20 -20 -20 -20 -20 -20 -20 -20 -20 -20 -20 -20 -20 -20 -20 -20 -20 -20 -15 -20 -20 -20 -20 -20 -20 -20 -20 -20 -20 -20 -20 -20
-20 -20 -20 -20 -20 -20 -20 -20 -20 -20 -19 -20 -20 -20 -20 -20 -20 -20 -20 -20 -20 -20 -20 -20 -20 -20 -20 -20 -20 -20 -20 -20 -20 -20 -20 -20 -20 -20 -20 -20 -20 -20 -20 -20
-20 -20 -20 -20 -20 -20 -20 -20 -20 -20 -20 -20 -15 -20 -20 -20 -20 -20 -20 -20 -20 -20 -20 -20 -20 -20 -20 -20 -20 -20 -20 -20 -20 -20 -20 -20 -20 -20 -20 -20 -20 -20 -20 -20
-20 -20 -20 -20 -20 -20 -20 -20 -20 -20 -20 -20 -20 -20 -20 -20 -20 -20 -20 -20 -20 -20 -20 -20 -20 -20 -20 -20 -20 -20 -20 -20 -20 -20 -20 -20 -20 -20 -20 -20 -20 -20 -20 -20
-20 -20 -20 -20 -20 -20 -20 -20 -20 -20 -20 -20 -20 -20 -20 -20 -20 -20 -20 -20 -20 -20 -20 -20 -20 -20 -20 -20 -20 -20 -20 -20 -20 -20 -20 -20 -20 -20 -20 -20 -20 -20 -20 -20
-20 -20 -20 -20 -20 -20 -20 -20 -20 -20 -20 -20 -20 -20 -20 -20 -20 -20 -20 -20 -20 -20 -20 -20 -20 -20 -20 -20 -20 -20 -20 -20 -20 -20 -20 -20 -20 -20 -20 -20 -20 -20 -20 -20
-20 -20 -20 -20 -20 -20 -20 -20 -20 -20 -20 -20 -20 -20 -20 -20 -20 -20 -20 -20 -20 -20 -20 -20 -20 -20 -20 -20 -20 -20 -20 -20 -20 -20 -20 -20 -20 -20 -20 -20 -20 -20 -20 -20
-20 -20 -20 -20 -20 -20 -20 -20 -20 -20 -20 -20 -20 -20 -20 -20 -20 -19 -19 -20 -20 -20 -20 -20 -20 -20 -20 -20 -20 -20 -20 -20 -20 -20 -20 -20 -20 -20 -20 -20 -20 -20 -20 -20
-20 -20 -20 -20 -17 -20 -20 -20 -20 -20 -20 -20 -20 -20 -20 -19 -20 -14 -20 -20 -20 -20 -20 -20 -20 -20 -20 -20 -20 -20 -20 -20 -20 -20 -20 -20 -20 -20 -20 -20 -20 -20 -20 -20
-20 -20 -20 -9 2 -20 -20 -20 -20 -20 -20 -20 -20 -20 -20 -20 -20 -20 -20 -20 -20 -20 -20 -20 -20 -20 -20 -20 -20 -20 -20 -20 -20 -20 -20 3 -2 -20 -20 -20 -20 -20 -20 -20
-20 -20 -20 -20 -20 -20 -20 -20 -20 -20 -20 -20 -20 -20 -20 -20 -20 -20 -20 -20 -20 -20 -20 -20 -20 -20 -20 -20 -20 -20 -20 -13 -20 -20 -20 -12 -10 -20 -20 -20 -20 -20 -20 -20
-20 -20 -20 -20 -20 -20 -20 -20 -20 -20 -20 -20 -20 -20 -20 -20 -20 -20 -20 -20 -20 -20 -20 -20 -20 -20 -20 -18 -18 -19 -3 23 -5 -20 -20 -20 -20 -18 -20 -20 -20 -20 -20 -20
-20 -20 -20 -20 -20 -18 -20 -20 -20 -20 -20 -20 -20 -20 -20 -20 -11 -20 -20 -20 -20 -20 -20 -20 -20 -20 -14 -9 -8 -17 10 27 8 -14 -20 -20 -20 -15 -20 -20 -20 -20 -20 -20
-20 -20 -20 -20 -20 -20 -20 -20 -20 -20 -20 -20 -20 -20 -20 -20 -20 -9 -15 3 17 2 -15 -20 -20 -19 -14 -6 8 8 16 17 20 3 -13 -20 -20 -20 -20 -20 -20 -20 -20 -20
Wind_Speed
6 1 8 16 15 4 14 10 11 9 8 13 12 13 13 7 9 15 17 14 13 8 4 4 3 3 6 7 8 11 10 11 8 7 6 7 7 6 6 6 8 8 7 8
3 2 9 10 10 11 14 14 13 8 12 12 10 14 13 13 14 12 15 18 16 12 7 5 7 4 7 7 6 6 9 8 9 7 6 4 4 4 4 3 5 6 7 8
7 3 12 13 13 13 14 16 12 10 11 12 5 13 17 17 16 14 14 18 17 17 9 9 9 8 7 7 6 6 6 6 5 5 3 3 1 2 3 3 2 1 1 2
5 8 12 10 15 13 13 10 13 11 12 5 11 4 11 18 17 20 19 18 21 17 10 9 8 8 8 6 4 5 6 6 4 4 4 5 4 4 0 1 1 1 3 3
3 10 12 16 14 10 5 12 10 9 10 4 8 6 2 6 20 20 18 19 18 17 14 12 8 7 6 5 5 5 6 5 5 4 3 3 3 1 1 1 2 1 2 3
5 11 4 9 5 2 13 13 9 5 3 7 11 11 4 5 11 12 17 19 16 14 12 13 8 8 8 7 5 5 6 5 5 5 5 4 4 3 3 2 2 1 1 2
5 6 1 4 10 10 9 17 5 5 6 5 1 9 11 10 9 7 10 17 19 15 19 13 13 13 12 11 9 7 7 6 5 5 5 5 4 3 3 2 1 1 1 0
3 4 5 3 5 7 15 10 3 7 5 5 3 7 3 2 2 2 6 7 9 16 16 13 14 14 14 13 11 10 8 7 6 6 5 5 4 3 3 3 1 1 1 2
4 4 2 6 2 2 4 6 3 5 1 3 4 4 10 4 3 4 5 5 10 10 8 8 11 13 12 12 11 10 9 8 6 6 5 4 4 3 3 2 1 1 1 2
2 5 2 5 1 4 2 9 4 0 5 5 3 5 3 5 7 6 3 6 7 7 7 8 10 12 11 11 10 9 9 8 7 6 5 4 4 3 2 1 1 1 2 3
2 2 4 8 4 8 5 5 2 0 3 3 2 3 4 4 4 7 7 4 4 5 7 9 11 11 10 9 10 9 9 9 7 6 5 5 4 3 1 1 1 2 1 2
3 5 5 2 2 1 1 2 11 6 6 0 4 4 6 3 2 4 6 4 2 3 7 11 13 12 10 9 9 8 8 8 6 6 5 5 4 4 3 2 2 1 1 1
5 3 6 4 3 2 6 8 4 2 2 7 7 3 2 2 3 1 4 3 4 6 8 11 12 12 12 11 10 9 8 7 7 6 6 5 4 3 3 3 3 2 1 2
3 4 4 6 3 4 7 14 14 10 5 11 14 13 7 9 10 6 10 4 5 9 12 11 10 11 11 11 10 10 9 8 7 7 6 6 5 4 4 3 2 1 1 0
4 1 2 1 2 2 3 9 17 14 17 16 10 19 18 18 18 14 8 6 7 10 12 13 12 12 11 11 10 9 8 8 8 8 7 6 5 4 4 3 3 3 2 2
1 2 1 2 2 4 7 11 13 18 20 22 24 27 19 16 11 12 15 9 7 12 14 15 14 14 13 13 11 10 10 9 8 7 6 6 6 5 4 4 4 3 3 3
3 5 4 1 1 4 9 18 17 11 12 14 18 19 14 13 14 12 14 14 14 15 15 17 17 15 13 13 11 11 10 9 9 7 6 7 7 6 5 5 5 5 4 4
6 5 2 1 3 6 2 1 2 13 13 14 18 18 17 16 15 13 14 13 14 14 14 16 14 13 12 11 11 10 10 11 9 8 8 7 7 7 6 6 6 5 4 5
3 4 4 4 5 8 4 3 4 5 4 4 13 13 12 11 10 16 16 12 13 9 10 12 11 10 11 12 11 11 11 10 9 10 9 9 8 8 8 7 7 4 5 5
2 1 4 3 3 4 3 2 3 2 5 3 4 8 9 5 7 5 7 5 6 5 5 7 8 8 10 10 11 11 10 10 10 10 9 9 8 8 8 8 8 5 5 5
4 4 9 8 5 7 5 5 3 4 4 1 4 7 7 5 5 6 6 3 2 2 4 7 8 8 8 9 10 9 9 11 9 8 8 8 8 8 8 7 6 5 4 5
6 5 4 5 5 8 7 6 6 3 0 3 5 5 6 6 5 3 1 2 3 6 6 6 7 7 6 8 9 9 9 8 8 8 8 8 8 6 6 8 6 6 6 7
5 5 2 6 4 2 8 6 5 2 4 3 4 4 5 4 3 2 2 3 4 5 5 5 6 7 6 7 7 8 6 9 9 9 8 8 8 7 8 8 8 7 8 7
6 5 4 2 6 12 11 10 10 6 10 7 6 4 4 4 4 3 4 4 4 4 4 5 7 7 7 7 7 6 6 8 8 9 8 8 8 8 8 7 7 8 8 8
1 6 4 8 9 12 12 11 9 7 7 6 3 3 2 3 4 4 4 3 3 3 3 4 4 3 4 6 6 6 6 7 8 9 8 8 7 9 8 8 7 8 9 9
7 8 7 9 5 5 4 2 3 5 7 7 7 5 1 3 4 2 4 3 2 3 3 4 4 5 5 5 5 6 8 9 9 8 8 8 6 6 7 7 6 12 12 14
Wind_Direction
173 163 183 177 190 192 144 158 175 157 169 199 220 227 233 231 242 246 253 254 244 254 315 299 274 259 231 210 205 203 196 204 200 202 205 226 222 223 236 238 244 244 244 241
153 159 207 154 160 165 175 176 177 157 176 210 204 230 235 230 231 230 249 251 238 241 262 276 267 218 228 223 204 210 212 199 205 208 211 223 225 234 252 229 243 246 247 245
132 145 172 174 179 168 173 186 170 160 152 201 215 245 237 236 234 230 241 246 239 234 246 269 276 221 207 219 203 186 176 185 197 211 185 185 189 220 215 209 193 77 355 350
157 154 169 178 174 168 170 196 170 151 170 210 203 270 219 218 221 227 230 235 230 213 221 259 261 229 202 190 185 169 153 145 134 159 178 207 233 234 98 120 111 116 50 46
115 151 175 197 172 191 124 166 190 189 203 218 192 249 231 237 226 231 236 239 246 212 213 236 229 218 193 168 172 156 139 131 126 126 139 163 174 136 123 152 181 149 114 57
97 112 187 186 128 191 143 137 105 112 202 237 224 222 248 223 239 246 228 243 236 220 216 233 213 178 178 157 166 159 146 125 117 117 113 126 145 158 167 151 163 147 139 87
109 119 342 244 132 146 187 152 126 180 208 233 36 220 257 283 242 258 245 233 232 221 222 226 199 183 180 171 170 168 159 133 120 110 97 97 105 110 126 138 137 198 180 6
136 155 151 199 161 184 187 178 200 195 196 183 177 220 244 315 334 339 263 258 254 237 238 230 213 194 182 172 171 165 156 139 130 116 100 91 88 93 90 71 67 55 1 356
154 83 168 233 50 235 185 204 22 94 48 227 146 237 264 316 248 246 256 238 242 230 244 239 218 196 178 169 170 163 151 140 134 122 117 99 86 83 90 85 65 38 8 345
131 112 260 131 230 71 244 143 172 290 172 215 150 255 169 32 12 357 315 279 248 228 221 205 193 183 175 165 154 155 153 149 141 135 124 113 98 80 74 64 49 14 1 345
201 98 138 149 235 200 155 187 124 124 331 273 175 163 149 96 350 334 354 336 274 217 196 182 173 166 159 155 158 156 153 150 149 145 143 146 133 121 107 80 37 3 338 346
185 122 120 98 84 355 206 230 224 234 185 59 325 239 170 208 311 307 359 19 47 166 177 169 163 156 160 167 167 168 160 158 151 147 151 142 143 151 144 117 76 34 2 22
189 132 131 137 190 207 229 207 216 233 19 202 236 175 133 195 208 160 29 18 119 146 169 168 166 175 175 176 175 175 171 166 157 158 157 156 156 152 123 101 77 58 67 69
203 168 233 199 103 134 200 212 209 199 214 241 228 257 210 219 220 262 312 282 201 175 179 184 184 188 186 184 184 183 179 172 165 166 167 174 181 170 148 140 124 106 19 73
329 46 78 7 87 163 245 223 211 212 226 237 259 243 246 261 277 302 320 299 235 207 194 193 196 197 194 192 187 188 188 182 175 176 175 172 179 171 156 159 166 164 179 148
94 115 98 287 218 245 262 243 230 231 238 252 254 263 264 252 256 263 274 274 240 225 212 206 202 201 199 199 197 190 187 184 178 186 188 170 174 170 172 167 164 177 168 144
173 150 166 224 266 257 263 242 224 225 231 238 247 254 276 259 258 262 272 265 246 240 223 213 208 204 201 199 196 197 189 175 183 181 194 188 177 172 177 170 175 175 165 140
158 159 177 178 199 239 44 58 260 237 262 253 258 269 275 277 279 276 277 273 266 253 235 218 208 204 198 192 188 185 179 180 179 182 195 193 189 179 171 177 176 176 157 152
243 176 167 234 220 299 256 185 189 206 281 250 254 273 281 294 302 276 252 246 256 278 238 211 198 198 183 179 175 174 176 172 178 189 194 196 191 182 177 181 176 162 152 141
157 253 234 171 247 259 73 105 179 201 262 150 238 285 295 308 263 300 360 281 259 259 217 175 160 164 171 164 167 169 172 180 194 194 194 192 193 189 183 181 172 162 163 154
182 199 223 222 240 271 249 185 167 241 58 285 262 290 289 251 275 326 335 356 40 72 118 120 143 157 158 155 162 174 179 197 193 185 186 189 195 190 181 167 160 151 145 152
202 198 203 208 225 257 149 120 222 50 174 281 289 291 278 258 289 313 353 76 101 105 111 120 130 136 142 156 171 181 193 183 176 177 182 188 184 172 165 164 153 159 169 183
234 231 243 230 238 4 196 248 224 239 263 268 276 295 265 246 246 192 155 139 126 127 131 136 136 142 159 173 189 185 182 174 175 180 186 189 180 175 171 167 171 173 188 195
218 182 242 256 240 243 250 250 252 231 250 261 257 263 225 242 184 176 159 157 148 145 160 162 163 171 181 190 198 196 165 178 182 190 192 184 185 181 180 182 185 190 191 197
343 156 232 255 272 275 263 249 260 249 231 230 220 226 232 215 165 173 149 153 157 165 174 182 206 202 204 191 197 185 169 175 189 199 193 191 189 191 191 196 192 205 209 207
195 213 213 248 239 256 274 291 299 248 221 214 195 179 117 149 142 144 134 127 153 180 185 216 224 221 215 193 192 191 181 184 195 202 200 198 187 191 199 202 206 222 227 216